Time,TemperatureF,DewpointF,PressureIn,WindDirection,WindDirectionDegrees,WindSpeedMPH,WindSpeedGustMPH,Humidity,HourlyPrecipIn,Conditions,Clouds,dailyrainin,SoftwareType,DateUTC
2013-01-27 00:03:00,14.0,7.0,30.38,SW,225,0.0,0.0,74,0.00,,,0.10,,2013-01-27 05:03:00,
2013-01-27 00:12:00,14.0,7.0,30.38,SW,225,0.0,0.0,74,0.00,,,0.10,,2013-01-27 05:12:00,
2013-01-27 00:22:00,14.0,8.0,30.38,SW,225,0.0,0.0,75,0.00,,,0.10,,2013-01-27 05:22:00,
2013-01-27 00:32:00,13.0,7.0,30.38,SW,225,0.0,0.0,75,0.00,,,0.10,,2013-01-27 05:32:00,
2013-01-27 00:41:00,13.0,7.0,30.38,SW,225,0.0,0.0,75,0.00,,,0.10,,2013-01-27 05:41:00,
2013-01-27 00:52:00,13.0,7.0,30.40,SW,225,0.0,0.0,75,0.00,,,0.10,,2013-01-27 05:52:00,
2013-01-27 01:02:00,12.0,6.0,30.40,SW,225,0.0,0.0,75,0.00,,,0.10,,2013-01-27 06:02:00,
2013-01-27 01:11:00,12.0,6.0,30.40,SW,225,0.0,0.0,75,0.00,,,0.10,,2013-01-27 06:11:00,
2013-01-27 01:21:00,12.0,6.0,30.40,SW,225,0.0,0.0,76,0.00,,,0.10,,2013-01-27 06:21:00,
2013-01-27 01:32:00,11.0,5.0,30.40,SW,225,0.0,0.0,76,0.00,,,0.10,,2013-01-27 06:32:00,
2013-01-27 01:42:00,11.0,5.0,30.40,SW,225,0.0,0.0,76,0.00,,,0.10,,2013-01-27 06:42:00,
2013-01-27 01:52:00,11.0,5.0,30.41,SW,225,0.0,0.0,76,0.00,,,0.10,,2013-01-27 06:52:00,
2013-01-27 02:01:00,11.0,5.0,30.41,SSW,203,0.0,0.0,76,0.00,,,0.10,,2013-01-27 07:01:00,
2013-01-27 02:14:00,11.0,5.0,30.41,SSW,203,0.0,0.0,76,0.00,,,0.10,,2013-01-27 07:14:00,
2013-01-27 02:21:00,12.0,6.0,30.41,SSW,203,0.0,0.0,77,0.00,,,0.10,,2013-01-27 07:21:00,
2013-01-27 02:32:00,12.0,6.0,30.41,SSW,203,0.0,0.0,77,0.00,,,0.10,,2013-01-27 07:32:00,
2013-01-27 02:41:00,12.0,6.0,30.41,SSW,203,0.0,0.0,77,0.00,,,0.10,,2013-01-27 07:41:00,
2013-01-27 02:52:00,13.0,7.0,30.42,SSW,203,0.0,0.0,77,0.00,,,0.10,,2013-01-27 07:52:00,
2013-01-27 03:01:00,13.0,7.0,30.41,SSW,203,0.0,0.0,77,0.00,,,0.10,,2013-01-27 08:01:00,
2013-01-27 03:11:00,13.0,7.0,30.41,SSW,203,0.0,0.0,77,0.00,,,0.10,,2013-01-27 08:11:00,
2013-01-27 03:22:00,13.0,7.0,30.40,SSW,203,0.0,0.0,77,0.00,,,0.10,,2013-01-27 08:22:00,
2013-01-27 03:32:00,14.0,8.0,30.40,SSW,203,0.0,0.0,78,0.00,,,0.10,,2013-01-27 08:32:00,
2013-01-27 03:42:00,14.0,8.0,30.40,SSW,203,0.0,0.0,78,0.00,,,0.10,,2013-01-27 08:42:00,
2013-01-27 03:52:00,15.0,9.0,30.39,SSE,158,0.0,0.0,78,0.00,,,0.10,,2013-01-27 08:52:00,
2013-01-27 04:03:00,16.0,10.0,30.39,SSE,158,0.0,0.0,78,0.00,,,0.10,,2013-01-27 09:03:00,
2013-01-27 04:11:00,16.0,10.0,30.39,SSE,158,0.0,0.0,78,0.00,,,0.10,,2013-01-27 09:11:00,
2013-01-27 04:21:00,16.0,10.0,30.39,SSE,158,0.0,0.0,78,0.00,,,0.10,,2013-01-27 09:21:00,
2013-01-27 04:32:00,16.0,10.0,30.40,SSE,158,0.0,0.0,77,0.00,,,0.10,,2013-01-27 09:32:00,
2013-01-27 04:41:00,16.0,10.0,30.40,SSE,158,0.0,0.0,77,0.00,,,0.10,,2013-01-27 09:41:00,
2013-01-27 04:51:00,16.0,10.0,30.41,SSE,158,0.0,0.0,77,0.00,,,0.10,,2013-01-27 09:51:00,
2013-01-27 05:01:00,15.0,9.0,30.41,SSE,158,0.0,0.0,77,0.00,,,0.10,,2013-01-27 10:01:00,
2013-01-27 05:11:00,15.0,9.0,30.41,SSE,158,0.0,0.0,77,0.00,,,0.10,,2013-01-27 10:11:00,
2013-01-27 05:21:00,15.0,9.0,30.41,SSE,158,0.0,0.0,77,0.00,,,0.10,,2013-01-27 10:21:00,
2013-01-27 05:32:00,16.0,10.0,30.41,SSE,158,0.0,0.0,77,0.00,,,0.10,,2013-01-27 10:32:00,
2013-01-27 05:42:00,16.0,10.0,30.41,SSE,158,0.0,0.0,77,0.00,,,0.10,,2013-01-27 10:42:00,
2013-01-27 05:51:00,16.0,10.0,30.40,SSE,158,0.0,0.0,77,0.00,,,0.10,,2013-01-27 10:51:00,
2013-01-27 06:01:00,16.0,10.0,30.40,SSE,158,0.0,0.0,77,0.00,,,0.10,,2013-01-27 11:01:00,
2013-01-27 06:11:00,16.0,10.0,30.39,South,180,0.0,0.0,77,0.00,,,0.10,,2013-01-27 11:11:00,
2013-01-27 06:21:00,16.0,10.0,30.39,South,180,0.0,0.0,77,0.00,,,0.10,,2013-01-27 11:21:00,
2013-01-27 06:32:00,16.0,10.0,30.40,SSE,158,0.0,0.0,77,0.00,,,0.10,,2013-01-27 11:32:00,
2013-01-27 06:42:00,16.0,10.0,30.40,SSE,158,0.0,0.0,77,0.00,,,0.10,,2013-01-27 11:42:00,
2013-01-27 06:52:00,16.0,10.0,30.40,SSE,158,0.0,0.0,77,0.00,,,0.10,,2013-01-27 11:52:00,
2013-01-27 07:02:00,16.0,10.0,30.41,SSE,158,0.0,0.0,77,0.00,,,0.10,,2013-01-27 12:02:00,
2013-01-27 07:12:00,16.0,10.0,30.41,SSE,158,0.0,0.0,77,0.00,,,0.10,,2013-01-27 12:12:00,
2013-01-27 07:22:00,16.0,10.0,30.40,SSE,158,0.0,0.0,77,0.00,,,0.10,,2013-01-27 12:22:00,
2013-01-27 07:32:00,16.0,10.0,30.40,SSE,158,0.0,0.0,77,0.00,,,0.10,,2013-01-27 12:32:00,
2013-01-27 07:42:00,16.0,10.0,30.40,SSE,158,0.0,0.0,77,0.00,,,0.10,,2013-01-27 12:42:00,
2013-01-27 07:52:00,16.0,10.0,30.40,SSE,158,0.0,0.0,77,0.00,,,0.10,,2013-01-27 12:52:00,
2013-01-27 08:02:00,16.0,10.0,30.40,SSE,158,0.0,0.0,77,0.00,,,0.10,,2013-01-27 13:02:00,
2013-01-27 08:11:00,16.0,10.0,30.40,SSE,158,0.0,0.0,77,0.00,,,0.10,,2013-01-27 13:11:00,
2013-01-27 08:22:00,17.0,11.0,30.40,South,180,0.0,0.0,77,0.00,,,0.10,,2013-01-27 13:22:00,
2013-01-27 08:32:00,17.0,11.0,30.40,SSE,158,0.0,0.0,77,0.00,,,0.10,,2013-01-27 13:32:00,
2013-01-27 08:42:00,18.0,12.0,30.40,SSE,158,0.0,0.0,77,0.00,,,0.10,,2013-01-27 13:42:00,
2013-01-27 08:52:00,18.0,12.0,30.40,SSE,158,0.0,0.0,77,0.00,,,0.10,,2013-01-27 13:52:00,
2013-01-27 09:02:00,18.0,12.0,30.40,SSE,158,0.0,0.0,78,0.00,,,0.10,,2013-01-27 14:02:00,
2013-01-27 09:12:00,18.0,12.0,30.40,SSE,158,0.0,0.0,78,0.00,,,0.10,,2013-01-27 14:12:00,
2013-01-27 09:22:00,20.0,14.0,30.40,SSE,158,0.0,2.0,77,0.00,,,0.10,,2013-01-27 14:22:00,
2013-01-27 09:33:00,20.0,14.0,30.40,SSE,158,1.0,1.0,77,0.00,,,0.10,,2013-01-27 14:33:00,
2013-01-27 09:42:00,20.0,14.0,30.40,SSE,158,1.0,1.0,77,0.00,,,0.10,,2013-01-27 14:42:00,
2013-01-27 09:52:00,22.0,16.0,30.40,SE,135,0.0,0.0,76,0.00,,,0.10,,2013-01-27 14:52:00,
2013-01-27 10:02:00,22.0,15.0,30.40,South,180,0.0,0.0,74,0.00,,,0.10,,2013-01-27 15:02:00,
2013-01-27 10:12:00,22.0,15.0,30.40,South,180,0.0,0.0,74,0.00,,,0.10,,2013-01-27 15:12:00,
2013-01-27 10:22:00,23.0,16.0,30.40,SSE,158,2.0,5.0,74,0.00,,,0.10,,2013-01-27 15:22:00,
2013-01-27 10:32:00,24.0,16.0,30.40,SSE,158,0.0,0.0,72,0.00,,,0.10,,2013-01-27 15:32:00,
2013-01-27 10:42:00,24.0,16.0,30.40,SSE,158,0.0,0.0,72,0.00,,,0.10,,2013-01-27 15:42:00,
2013-01-27 10:52:00,25.0,17.0,30.39,SE,135,0.0,0.0,71,0.00,,,0.10,,2013-01-27 15:52:00,
2013-01-27 11:03:00,25.0,17.0,30.38,SSE,158,3.0,5.0,70,0.00,,,0.10,,2013-01-27 16:03:00,
2013-01-27 11:12:00,25.0,17.0,30.38,SSE,158,3.0,5.0,70,0.00,,,0.10,,2013-01-27 16:12:00,
2013-01-27 11:22:00,25.0,16.0,30.39,SSE,158,2.0,5.0,69,0.00,,,0.10,,2013-01-27 16:22:00,
2013-01-27 11:32:00,26.0,17.0,30.38,SE,135,2.0,2.0,68,0.00,,,0.10,,2013-01-27 16:32:00,
2013-01-27 11:42:00,26.0,17.0,30.38,SE,135,2.0,2.0,68,0.00,,,0.10,,2013-01-27 16:42:00,
2013-01-27 11:52:00,26.0,17.0,30.39,SW,225,1.0,5.0,68,0.00,,,0.10,,2013-01-27 16:52:00,
2013-01-27 12:02:00,26.0,17.0,30.39,South,180,2.0,7.0,67,0.00,,,0.08,,2013-01-27 17:02:00,
2013-01-27 12:12:00,26.0,17.0,30.39,South,180,2.0,7.0,67,0.00,,,0.08,,2013-01-27 17:12:00,
2013-01-27 12:22:00,26.0,17.0,30.38,South,180,0.0,0.0,68,0.00,,,0.06,,2013-01-27 17:22:00,
2013-01-27 12:32:00,27.0,18.0,30.37,South,180,5.0,6.0,67,0.00,,,0.06,,2013-01-27 17:32:00,
2013-01-27 12:42:00,27.0,18.0,30.37,South,180,5.0,6.0,67,0.00,,,0.06,,2013-01-27 17:42:00,
2013-01-27 12:52:00,27.0,18.0,30.37,South,180,5.0,7.0,67,0.00,,,0.02,,2013-01-27 17:52:00,
2013-01-27 13:02:00,27.0,18.0,30.37,SSE,158,5.0,5.0,67,0.00,,,0.02,,2013-01-27 18:02:00,
2013-01-27 13:12:00,27.0,18.0,30.37,SSE,158,5.0,5.0,67,0.00,,,0.02,,2013-01-27 18:12:00,
2013-01-27 13:22:00,28.0,18.0,30.36,South,180,2.0,2.0,66,0.00,,,0.02,,2013-01-27 18:22:00,
2013-01-27 13:32:00,28.0,18.0,30.35,South,180,7.0,7.0,65,0.00,,,0.02,,2013-01-27 18:32:00,
2013-01-27 13:42:00,28.0,18.0,30.35,South,180,7.0,7.0,65,0.00,,,0.02,,2013-01-27 18:42:00,
2013-01-27 13:52:00,28.0,18.0,30.35,South,180,5.0,6.0,65,0.00,,,0.02,,2013-01-27 18:52:00,
2013-01-27 14:02:00,28.0,17.0,30.33,South,180,1.0,0.0,64,0.00,,,0.02,,2013-01-27 19:02:00,
2013-01-27 14:12:00,28.0,17.0,30.33,South,180,1.0,0.0,64,0.00,,,0.02,,2013-01-27 19:12:00,
2013-01-27 14:22:00,29.0,18.0,30.32,SSE,158,2.0,6.0,64,0.00,,,0.02,,2013-01-27 19:22:00,
2013-01-27 14:32:00,29.0,18.0,30.31,SW,225,2.0,5.0,63,0.00,,,0.02,,2013-01-27 19:32:00,
2013-01-27 14:42:00,29.0,18.0,30.31,SW,225,2.0,5.0,63,0.00,,,0.02,,2013-01-27 19:42:00,
2013-01-27 14:52:00,28.0,17.0,30.31,South,180,3.0,5.0,63,0.00,,,0.02,,2013-01-27 19:52:00,
2013-01-27 15:03:00,29.0,18.0,30.30,South,180,1.0,0.0,62,0.00,,,0.00,,2013-01-27 20:03:00,
2013-01-27 15:12:00,29.0,18.0,30.30,South,180,1.0,0.0,62,0.00,,,0.00,,2013-01-27 20:12:00,
2013-01-27 15:22:00,29.0,18.0,30.30,South,180,2.0,5.0,62,0.00,,,0.00,,2013-01-27 20:22:00,
2013-01-27 15:33:00,29.0,18.0,30.28,SE,135,1.0,2.0,62,0.00,,,0.00,,2013-01-27 20:33:00,
2013-01-27 15:42:00,29.0,18.0,30.28,SE,135,1.0,2.0,62,0.00,,,0.00,,2013-01-27 20:42:00,
2013-01-27 15:52:00,29.0,18.0,30.28,SSE,158,0.0,0.0,62,0.00,,,0.00,,2013-01-27 20:52:00,
2013-01-27 16:02:00,29.0,18.0,30.27,South,180,1.0,0.0,62,0.00,,,0.00,,2013-01-27 21:02:00,
2013-01-27 16:12:00,29.0,18.0,30.27,South,180,1.0,0.0,62,0.00,,,0.00,,2013-01-27 21:12:00,
2013-01-27 16:22:00,29.0,18.0,30.26,South,180,1.0,1.0,62,0.00,,,0.00,,2013-01-27 21:22:00,
2013-01-27 16:33:00,29.0,18.0,30.26,SSW,203,1.0,5.0,62,0.00,,,0.00,,2013-01-27 21:33:00,
2013-01-27 16:42:00,29.0,18.0,30.26,SSW,203,1.0,5.0,62,0.00,,,0.00,,2013-01-27 21:42:00,
2013-01-27 16:52:00,28.0,17.0,30.27,South,180,2.0,5.0,62,0.00,,,0.00,,2013-01-27 21:52:00,
2013-01-27 17:02:00,28.0,17.0,30.27,SSE,158,1.0,3.0,62,0.00,,,0.00,,2013-01-27 22:02:00,
2013-01-27 17:12:00,28.0,17.0,30.27,SSE,158,1.0,3.0,62,0.00,,,0.00,,2013-01-27 22:12:00,
2013-01-27 17:22:00,28.0,17.0,30.26,SE,135,0.0,0.0,62,0.00,,,0.00,,2013-01-27 22:22:00,
2013-01-27 17:32:00,28.0,17.0,30.27,South,180,0.0,0.0,63,0.00,,,0.00,,2013-01-27 22:32:00,
2013-01-27 17:42:00,28.0,17.0,30.27,South,180,0.0,0.0,63,0.00,,,0.00,,2013-01-27 22:42:00,
2013-01-27 17:52:00,28.0,17.0,30.27,South,180,0.0,3.0,63,0.00,,,0.00,,2013-01-27 22:52:00,
2013-01-27 18:02:00,28.0,17.0,30.26,SSE,158,0.0,1.0,63,0.00,,,0.00,,2013-01-27 23:02:00,
2013-01-27 18:12:00,28.0,17.0,30.26,SSE,158,0.0,1.0,63,0.00,,,0.00,,2013-01-27 23:12:00,
2013-01-27 18:22:00,28.0,17.0,30.26,South,180,0.0,0.0,64,0.00,,,0.00,,2013-01-27 23:22:00,
2013-01-27 18:32:00,28.0,17.0,30.26,SSE,158,0.0,0.0,64,0.00,,,0.00,,2013-01-27 23:32:00,
2013-01-27 18:42:00,28.0,17.0,30.26,SSE,158,0.0,0.0,64,0.00,,,0.00,,2013-01-27 23:42:00,
2013-01-27 18:52:00,28.0,18.0,30.26,SSE,158,2.0,2.0,65,0.00,,,0.00,,2013-01-27 23:52:00,
2013-01-27 19:02:00,27.0,18.0,30.25,SSE,158,1.0,2.0,67,0.00,,,0.00,,2013-01-28 00:02:00,
2013-01-27 19:11:00,27.0,18.0,30.25,SSE,158,1.0,2.0,67,0.00,,,0.00,,2013-01-28 00:11:00,
2013-01-27 19:21:00,27.0,18.0,30.24,SSE,158,0.0,0.0,68,0.00,,,0.00,,2013-01-28 00:21:00,
2013-01-27 19:32:00,26.0,18.0,30.25,South,180,0.0,0.0,70,0.00,,,0.00,,2013-01-28 00:32:00,
2013-01-27 19:42:00,26.0,18.0,30.25,South,180,0.0,0.0,70,0.00,,,0.00,,2013-01-28 00:42:00,
2013-01-27 19:51:00,26.0,18.0,30.25,SSW,203,0.0,0.0,72,0.00,,,0.00,,2013-01-28 00:51:00,
2013-01-27 20:02:00,25.0,18.0,30.25,SSE,158,0.0,0.0,74,0.00,,,0.00,,2013-01-28 01:02:00,
2013-01-27 20:11:00,25.0,18.0,30.25,SSE,158,0.0,0.0,74,0.00,,,0.00,,2013-01-28 01:11:00,
2013-01-27 20:22:00,25.0,18.0,30.22,SE,135,0.0,0.0,75,0.00,,,0.00,,2013-01-28 01:22:00,
2013-01-27 20:33:00,25.0,19.0,30.20,SE,135,0.0,0.0,77,0.00,,,0.00,,2013-01-28 01:33:00,
2013-01-27 20:42:00,25.0,19.0,30.20,SE,135,0.0,0.0,77,0.00,,,0.00,,2013-01-28 01:42:00,
2013-01-27 20:52:00,25.0,19.0,30.19,ESE,113,0.0,0.0,78,0.00,,,0.00,,2013-01-28 01:52:00,
2013-01-27 21:02:00,25.0,19.0,30.19,ESE,113,0.0,0.0,79,0.00,,,0.00,,2013-01-28 02:02:00,
2013-01-27 21:11:00,25.0,19.0,30.19,ESE,113,0.0,0.0,79,0.00,,,0.00,,2013-01-28 02:11:00,
2013-01-27 21:22:00,25.0,20.0,30.17,SSE,158,0.0,0.0,80,0.00,,,0.00,,2013-01-28 02:22:00,
2013-01-27 21:32:00,25.0,20.0,30.17,SE,135,0.0,0.0,80,0.00,,,0.00,,2013-01-28 02:32:00,
2013-01-27 21:42:00,25.0,20.0,30.17,SE,135,0.0,0.0,80,0.00,,,0.00,,2013-01-28 02:42:00,
2013-01-27 21:52:00,25.0,20.0,30.17,SE,135,0.0,0.0,81,0.00,,,0.00,,2013-01-28 02:52:00,
2013-01-27 22:02:00,25.0,20.0,30.18,East,90,0.0,0.0,81,0.00,,,0.00,,2013-01-28 03:02:00,
2013-01-27 22:12:00,25.0,20.0,30.18,East,90,0.0,0.0,81,0.00,,,0.00,,2013-01-28 03:12:00,
2013-01-27 22:22:00,25.0,20.0,30.15,SE,135,0.0,0.0,81,0.00,,,0.00,,2013-01-28 03:22:00,
2013-01-27 22:32:00,25.0,20.0,30.15,ESE,113,0.0,0.0,81,0.00,,,0.00,,2013-01-28 03:32:00,
2013-01-27 22:42:00,25.0,20.0,30.15,ESE,113,0.0,0.0,81,0.00,,,0.00,,2013-01-28 03:42:00,
2013-01-27 22:52:00,25.0,20.0,30.13,SE,135,0.0,0.0,82,0.00,,,0.00,,2013-01-28 03:52:00,
2013-01-27 23:02:00,25.0,20.0,30.14,ESE,113,0.0,0.0,82,0.00,,,0.00,,2013-01-28 04:02:00,
2013-01-27 23:12:00,25.0,20.0,30.14,ESE,113,0.0,0.0,82,0.00,,,0.00,,2013-01-28 04:12:00,
2013-01-27 23:22:00,26.0,21.0,30.12,East,90,0.0,0.0,82,0.00,,,0.00,,2013-01-28 04:22:00,
2013-01-27 23:32:00,26.0,21.0,30.11,East,90,0.0,0.0,82,0.00,,,0.00,,2013-01-28 04:32:00,
2013-01-27 23:42:00,26.0,21.0,30.11,East,90,0.0,0.0,82,0.00,,,0.00,,2013-01-28 04:42:00,
2013-01-27 23:52:00,26.0,22.0,30.10,ESE,113,0.0,0.0,83,0.00,,,0.00,,2013-01-28 04:52:00,